| time (UTC) | temp C | wind direction | speed KPH | gust KPH | rain 1hr cm | rain 24hr cm | rain mn cm | humidity % | barometer mb |
| 20260506004544 | 7 | 290 | 3.2 | 16.1 | 0.00 | 0.00 | 0.00 | 37 | 1018.4 |
| 20260506004043 | 7 | 304 | 8.0 | 16.1 | 0.00 | 0.00 | 0.00 | 37 | 1018.3 |
| 20260506003043 | 7 | 360 | 6.4 | 14.5 | 0.00 | 0.00 | 0.00 | 36 | 1018.2 |
| 20260506002542 | 7 | 360 | 8.0 | 17.7 | 0.00 | 0.00 | 0.00 | 36 | 1018.2 |
| 20260506002042 | 7 | 12 | 6.4 | 17.7 | 0.00 | 0.00 | 0.00 | 36 | 1018.1 |
| 20260506001547 | 7 | 312 | 4.8 | 16.1 | 0.00 | 0.00 | 0.00 | 36 | 1018.2 |
| 20260506001042 | 7 | 307 | 4.8 | 16.1 | 0.00 | 0.00 | 0.00 | 35 | 1018.3 |
| 20260506000544 | 7 | 13 | 4.8 | 17.7 | 0.00 | 0.00 | 0.00 | 35 | 1018.2 |
| 20260506000047 | 7 | 300 | 8.0 | 19.3 | 0.00 | 0.00 | 0.00 | 35 | 1018.1 |
| 20260505235544 | 7 | 317 | 4.8 | 19.3 | 0.00 | 0.00 | 0.00 | 35 | 1018.1 |
| 20260505235042 | 7 | 302 | 4.8 | 12.9 | 0.00 | 0.00 | 0.00 | 36 | 1018.1 |
| 20260505234541 | 7 | 298 | 1.6 | 14.5 | 0.00 | 0.00 | 0.00 | 35 | 1018.1 |
| 20260505234041 | 7 | 355 | 6.4 | 17.7 | 0.00 | 0.00 | 0.00 | 35 | 1018.0 |
| 20260505233145 | 7 | 296 | 6.4 | 16.1 | 0.00 | 0.00 | 0.00 | 35 | 1017.9 |
| 20260505232545 | 7 | 302 | 3.2 | 16.1 | 0.00 | 0.00 | 0.00 | 35 | 1017.8 |
| 20260505232048 | 7 | 360 | 3.2 | 14.5 | 0.00 | 0.00 | 0.00 | 36 | 1018.0 |
| 20260505231603 | 7 | 292 | 6.4 | 14.5 | 0.00 | 0.00 | 0.00 | 35 | 1017.7 |
| 20260505231044 | 7 | 360 | 4.8 | 14.5 | 0.00 | 0.00 | 0.00 | 36 | 1018.0 |
| 20260505230544 | 7 | 30 | 4.8 | 24.1 | 0.00 | 0.00 | 0.00 | 36 | 1017.8 |
| 20260505230045 | 7 | 296 | 4.8 | 30.6 | 0.00 | 0.00 | 0.00 | 35 | 1017.9 |
| 20260505225545 | 7 | 324 | 3.2 | 16.1 | 0.00 | 0.00 | 0.00 | 36 | 1017.8 |
| 20260505225045 | 7 | 34 | 8.0 | 16.1 | 0.00 | 0.00 | 0.00 | 35 | 1017.8 |
| 20260505224545 | 7 | 26 | 4.8 | 16.1 | 0.00 | 0.00 | 0.00 | 35 | 1017.9 |
| 20260505224044 | 7 | 334 | 9.7 | 20.9 | 0.00 | 0.00 | 0.00 | 35 | 1017.8 |
| 20260505223037 | 7 | 317 | 6.4 | 17.7 | 0.00 | 0.00 | 0.00 | 36 | 1017.8 |
| 20260505222537 | 7 | 303 | 8.0 | 17.7 | 0.00 | 0.00 | 0.00 | 36 | 1017.9 |
| 20260505222037 | 7 | 323 | 6.4 | 20.9 | 0.00 | 0.00 | 0.00 | 36 | 1017.8 |
| 20260505221537 | 7 | 282 | 8.0 | 20.9 | 0.00 | 0.00 | 0.00 | 35 | 1017.9 |
| 20260505221036 | 7 | 292 | 4.8 | 22.5 | 0.00 | 0.00 | 0.00 | 35 | 1017.9 |
| 20260505220536 | 7 | 12 | 4.8 | 22.5 | 0.00 | 0.00 | 0.00 | 37 | 1017.8 |
| 20260505220036 | 7 | 300 | 6.4 | 19.3 | 0.00 | 0.00 | 0.00 | 36 | 1017.8 |
| 20260505215536 | 7 | 309 | 4.8 | 19.3 | 0.00 | 0.00 | 0.00 | 35 | 1017.7 |
| 20260505215036 | 8 | 308 | 6.4 | 14.5 | 0.00 | 0.00 | 0.00 | 35 | 1017.9 |
| 20260505214549 | 8 | 306 | 4.8 | 17.7 | 0.00 | 0.00 | 0.00 | 35 | 1017.7 |
| 20260505214036 | 7 | 308 | 8.0 | 22.5 | 0.00 | 0.00 | 0.00 | 36 | 1017.8 |
| 20260505213040 | 8 | 323 | 6.4 | 16.1 | 0.00 | 0.00 | 0.00 | 36 | 1017.9 |
| 20260505212537 | 7 | 321 | 6.4 | 20.9 | 0.00 | 0.00 | 0.00 | 36 | 1017.9 |
| 20260505212037 | 7 | 324 | 8.0 | 22.5 | 0.00 | 0.00 | 0.00 | 35 | 1018.0 |
| 20260505211537 | 7 | 36 | 11.3 | 22.5 | 0.00 | 0.00 | 0.00 | 35 | 1017.9 |
| 20260505211037 | 7 | 312 | 8.0 | 20.9 | 0.00 | 0.00 | 0.00 | 35 | 1017.9 |
| 20260505210536 | 8 | 316 | 4.8 | 16.1 | 0.00 | 0.00 | 0.00 | 35 | 1017.9 |
| 20260505210036 | 7 | 346 | 4.8 | 17.7 | 0.00 | 0.00 | 0.00 | 36 | 1017.9 |
| 20260505205638 | 8 | 301 | 8.0 | 17.7 | 0.00 | 0.00 | 0.00 | 34 | 1018.1 |
| 20260505205035 | 8 | 5 | 6.4 | 24.1 | 0.00 | 0.00 | 0.00 | 36 | 1018.1 |
| 20260505204535 | 7 | 315 | 8.0 | 24.1 | 0.00 | 0.00 | 0.00 | 36 | 1018.2 |
| 20260505204035 | 7 | 11 | 6.4 | 17.7 | 0.00 | 0.00 | 0.00 | 37 | 1018.0 |
| 20260505203052 | 7 | 297 | 14.5 | 22.5 | 0.00 | 0.00 | 0.00 | 35 | 1018.1 |
| 20260505202534 | 7 | 329 | 8.0 | 20.9 | 0.00 | 0.00 | 0.00 | 36 | 1018.1 |
| 20260505202035 | 7 | 308 | 8.0 | 17.7 | 0.00 | 0.00 | 0.00 | 35 | 1018.1 |
| 20260505201541 | 8 | 319 | 8.0 | 22.5 | 0.00 | 0.00 | 0.00 | 34 | 1018.2 |
| 20260505201033 | 8 | 5 | 8.0 | 22.5 | 0.00 | 0.00 | 0.00 | 36 | 1018.1 |
| 20260505200534 | 8 | 306 | 11.3 | 22.5 | 0.00 | 0.00 | 0.00 | 35 | 1018.2 |
| 20260505200034 | 7 | 360 | 6.4 | 22.5 | 0.00 | 0.00 | 0.00 | 38 | 1018.2 |
| 20260505195535 | 7 | 298 | 8.0 | 29.0 | 0.00 | 0.00 | 0.00 | 36 | 1018.2 |
| 20260505195032 | 7 | 303 | 8.0 | 29.0 | 0.00 | 0.00 | 0.00 | 35 | 1018.2 |
| 20260505194532 | 7 | 279 | 8.0 | 22.5 | 0.00 | 0.00 | 0.00 | 36 | 1018.2 |
| 20260505194033 | 7 | 321 | 8.0 | 22.5 | 0.00 | 0.00 | 0.00 | 36 | 1018.3 |
| 20260505193035 | 8 | 321 | 11.3 | 20.9 | 0.00 | 0.00 | 0.00 | 35 | 1018.0 |
| 20260505192535 | 8 | 13 | 8.0 | 19.3 | 0.00 | 0.00 | 0.00 | 37 | 1018.1 |
| 20260505192040 | 8 | 13 | 4.8 | 17.7 | 0.00 | 0.00 | 0.00 | 35 | 1018.1 |
| 20260505191535 | 7 | 82 | 4.8 | 17.7 | 0.00 | 0.00 | 0.00 | 36 | 1017.9 |
| 20260505191035 | 7 | 330 | 8.0 | 24.1 | 0.00 | 0.00 | 0.00 | 34 | 1017.9 |
| 20260505190534 | 8 | 336 | 9.7 | 24.1 | 0.00 | 0.00 | 0.00 | 34 | 1018.0 |
| 20260505190035 | 8 | 291 | 8.0 | 20.9 | 0.00 | 0.00 | 0.00 | 35 | 1018.0 |
| 20260505185532 | 8 | 294 | 8.0 | 17.7 | 0.00 | 0.00 | 0.00 | 35 | 1017.9 |
| 20260505185032 | 7 | 355 | 8.0 | 22.5 | 0.00 | 0.00 | 0.00 | 34 | 1018.0 |
| 20260505184535 | 7 | 20 | 11.3 | 22.5 | 0.00 | 0.00 | 0.00 | 36 | 1017.9 |
| 20260505184031 | 7 | 341 | 9.7 | 30.6 | 0.00 | 0.00 | 0.00 | 35 | 1018.1 |
| 20260505183026 | 7 | 321 | 8.0 | 20.9 | 0.00 | 0.00 | 0.00 | 35 | 1017.9 |
| 20260505182524 | 7 | 5 | 9.7 | 20.9 | 0.00 | 0.00 | 0.00 | 36 | 1017.7 |
| 20260505182024 | 6 | 320 | 9.7 | 22.5 | 0.00 | 0.00 | 0.00 | 37 | 1018.0 |
| 20260505181525 | 6 | 319 | 6.4 | 22.5 | 0.00 | 0.00 | 0.00 | 37 | 1017.9 |
| 20260505181024 | 6 | 350 | 9.7 | 19.3 | 0.00 | 0.00 | 0.00 | 36 | 1017.7 |
| 20260505180523 | 7 | 298 | 9.7 | 22.5 | 0.00 | 0.00 | 0.00 | 35 | 1017.9 |
| 20260505180022 | 6 | 334 | 11.3 | 24.1 | 0.00 | 0.00 | 0.00 | 37 | 1017.9 |
| 20260505175522 | 6 | 346 | 12.9 | 24.1 | 0.00 | 0.00 | 0.00 | 37 | 1017.9 |
| 20260505175022 | 6 | 348 | 6.4 | 17.7 | 0.00 | 0.00 | 0.00 | 38 | 1017.9 |
| 20260505174528 | 6 | 23 | 6.4 | 25.7 | 0.00 | 0.00 | 0.00 | 39 | 1018.1 |
| 20260505174021 | 5 | 311 | 9.7 | 25.7 | 0.00 | 0.00 | 0.00 | 37 | 1018.2 |
| 20260505173020 | 5 | 330 | 8.0 | 22.5 | 0.00 | 0.00 | 0.00 | 42 | 1018.2 |
| 20260505172519 | 5 | 307 | 11.3 | 20.9 | 0.00 | 0.00 | 0.00 | 41 | 1018.2 |
| 20260505172020 | 5 | 13 | 6.4 | 20.9 | 0.00 | 0.00 | 0.00 | 43 | 1018.2 |
| 20260505171519 | 5 | 349 | 6.4 | 22.5 | 0.00 | 0.00 | 0.00 | 43 | 1018.2 |
| 20260505171020 | 5 | 306 | 11.3 | 22.5 | 0.00 | 0.00 | 0.00 | 43 | 1018.3 |
| 20260505170519 | 5 | 319 | 8.0 | 20.9 | 0.00 | 0.00 | 0.00 | 42 | 1018.3 |
| 20260505170020 | 6 | 339 | 6.4 | 17.7 | 0.00 | 0.00 | 0.00 | 42 | 1018.2 |
| 20260505165518 | 6 | 22 | 11.3 | 17.7 | 0.00 | 0.00 | 0.00 | 41 | 1018.2 |
| 20260505165017 | 6 | 12 | 6.4 | 17.7 | 0.00 | 0.00 | 0.00 | 44 | 1018.2 |
| 20260505164515 | 5 | 360 | 8.0 | 16.1 | 0.00 | 0.00 | 0.00 | 48 | 1018.2 |
| 20260505164016 | 4 | 25 | 4.8 | 24.1 | 0.00 | 0.00 | 0.00 | 49 | 1018.2 |
| 20260505163026 | 5 | 360 | 9.7 | 17.7 | 0.00 | 0.00 | 0.00 | 48 | 1018.1 |
| 20260505162520 | 5 | 16 | 6.4 | 14.5 | 0.00 | 0.00 | 0.00 | 47 | 1018.1 |
| 20260505162019 | 4 | 12 | 4.8 | 22.5 | 0.00 | 0.00 | 0.00 | 50 | 1018.1 |
| 20260505161518 | 4 | 5 | 6.4 | 22.5 | 0.00 | 0.00 | 0.00 | 49 | 1018.1 |
| 20260505161018 | 4 | 355 | 6.4 | 14.5 | 0.00 | 0.00 | 0.00 | 48 | 1018.1 |
| 20260505160517 | 4 | 349 | 4.8 | 17.7 | 0.00 | 0.00 | 0.00 | 49 | 1018.2 |
| 20260505153012 | 3 | 355 | 4.8 | 19.3 | 0.00 | 0.00 | 0.00 | 52 | 1018.1 |
| 20260505152512 | 3 | 360 | 6.4 | 19.3 | 0.00 | 0.00 | 0.00 | 51 | 1018.0 |
| 20260505152015 | 3 | 9 | 8.0 | 19.3 | 0.00 | 0.00 | 0.00 | 51 | 1017.9 |
| 20260505151517 | 3 | 323 | 8.0 | 19.3 | 0.00 | 0.00 | 0.00 | 50 | 1017.9 |
| 20260505151011 | 3 | 332 | 3.2 | 16.1 | 0.00 | 0.00 | 0.00 | 51 | 1017.9 |
| 20260505150510 | 3 | 304 | 4.8 | 14.5 | 0.00 | 0.00 | 0.00 | 53 | 1017.8 |
| 20260505140502 | 3 | 340 | 3.2 | 9.7 | 0.00 | 0.00 | 0.00 | 56 | 1017.6 |
| 20260505124554 | 2 | 300 | 3.2 | 11.3 | 0.00 | 0.00 | 0.00 | 63 | 1016.9 |
| 20260505124051 | 2 | 284 | 4.8 | 9.7 | 0.00 | 0.00 | 0.00 | 63 | 1016.7 |
| 20260505123055 | 2 | 301 | 1.6 | 6.4 | 0.00 | 0.00 | 0.00 | 63 | 1016.7 |
| 20260505122556 | 2 | 293 | 1.6 | 8.0 | 0.00 | 0.00 | 0.00 | 63 | 1016.5 |
| 20260505122053 | 2 | 313 | 1.6 | 6.4 | 0.00 | 0.00 | 0.00 | 63 | 1016.6 |
| 20260505121612 | 2 | 318 | 1.6 | 8.0 | 0.00 | 0.00 | 0.00 | 63 | 1016.6 |
| 20260505121052 | 2 | 302 | 1.6 | 8.0 | 0.00 | 0.00 | 0.00 | 63 | 1016.6 |
| 20260505120552 | 2 | 301 | 3.2 | 9.7 | 0.00 | 0.00 | 0.00 | 62 | 1016.4 |
| 20260505120054 | 2 | 317 | 3.2 | 12.9 | 0.00 | 0.00 | 0.00 | 62 | 1016.4 |
| 20260505115555 | 2 | 304 | 1.6 | 12.9 | 0.00 | 0.00 | 0.00 | 62 | 1016.5 |
| 20260505115052 | 1 | 311 | 1.6 | 6.4 | 0.00 | 0.00 | 0.00 | 62 | 1016.4 |
| 20260505114550 | 1 | 309 | 1.6 | 6.4 | 0.00 | 0.00 | 0.00 | 62 | 1016.4 |
| 20260505114050 | 1 | 311 | 1.6 | 8.0 | 0.00 | 0.00 | 0.00 | 62 | 1016.3 |
| 20260505113047 | 1 | 317 | 3.2 | 8.0 | 0.00 | 0.00 | 0.00 | 62 | 1016.2 |
| 20260505112547 | 1 | 278 | 3.2 | 6.4 | 0.00 | 0.00 | 0.00 | 62 | 1016.2 |
| 20260505112046 | 1 | 301 | 3.2 | 6.4 | 0.00 | 0.00 | 0.00 | 62 | 1016.1 |
| 20260505111547 | 1 | 290 | 3.2 | 6.4 | 0.00 | 0.00 | 0.00 | 62 | 1015.8 |
| 20260505111046 | 1 | 288 | 1.6 | 6.4 | 0.00 | 0.00 | 0.00 | 62 | 1016.1 |
| 20260505110545 | 1 | 275 | 1.6 | 11.3 | 0.00 | 0.00 | 0.00 | 62 | 1016.1 |
| 20260505102039 | 1 | 284 | 3.2 | 4.8 | 0.00 | 0.00 | 0.00 | 60 | 1016.0 |
| 20260505101542 | 2 | 298 | 1.6 | 4.8 | 0.00 | 0.00 | 0.00 | 59 | 1015.8 |
| 20260505101037 | 2 | 302 | 1.6 | 6.4 | 0.00 | 0.00 | 0.00 | 58 | 1015.8 |
| 20260505100538 | 2 | 304 | 1.6 | 6.4 | 0.00 | 0.00 | 0.00 | 58 | 1015.7 |
| 20260505100036 | 2 | 302 | 3.2 | 6.4 | 0.00 | 0.00 | 0.00 | 58 | 1015.9 |
| 20260505095536 | 2 | 297 | 3.2 | 6.4 | 0.00 | 0.00 | 0.00 | 57 | 1015.9 |
| 20260505095036 | 2 | 312 | 3.2 | 8.0 | 0.00 | 0.00 | 0.00 | 57 | 1015.7 |
| 20260505094537 | 2 | 299 | 3.2 | 8.0 | 0.00 | 0.00 | 0.00 | 57 | 1015.7 |
| 20260505094033 | 2 | 308 | 4.8 | 12.9 | 0.00 | 0.00 | 0.00 | 56 | 1015.7 |
| 20260505093040 | 2 | 316 | 3.2 | 9.7 | 0.00 | 0.00 | 0.00 | 56 | 1015.7 |
| 20260505092533 | 2 | 298 | 3.2 | 9.7 | 0.00 | 0.00 | 0.00 | 56 | 1015.6 |
| 20260505092032 | 2 | 316 | 3.2 | 9.7 | 0.00 | 0.00 | 0.00 | 56 | 1015.6 |
| 20260505091532 | 2 | 307 | 3.2 | 6.4 | 0.00 | 0.00 | 0.00 | 56 | 1015.6 |
| 20260505091035 | 2 | 311 | 3.2 | 6.4 | 0.00 | 0.00 | 0.00 | 56 | 1015.7 |
| 20260505090530 | 2 | 308 | 3.2 | 11.3 | 0.00 | 0.00 | 0.00 | 56 | 1015.6 |
| 20260505090043 | 2 | 308 | 3.2 | 11.3 | 0.00 | 0.00 | 0.00 | 55 | 1015.8 |
| 20260505085531 | 2 | 313 | 4.8 | 12.9 | 0.00 | 0.00 | 0.00 | 55 | 1015.7 |
| 20260505085032 | 2 | 313 | 3.2 | 12.9 | 0.00 | 0.00 | 0.00 | 55 | 1015.8 |
| 20260505084530 | 2 | 314 | 4.8 | 11.3 | 0.00 | 0.00 | 0.00 | 55 | 1015.7 |
| 20260505084028 | 2 | 290 | 3.2 | 8.0 | 0.00 | 0.00 | 0.00 | 55 | 1015.6 |
| 20260505083037 | 2 | 302 | 3.2 | 9.7 | 0.00 | 0.00 | 0.00 | 55 | 1015.6 |
| 20260505082533 | 2 | 309 | 4.8 | 12.9 | 0.00 | 0.00 | 0.00 | 55 | 1015.6 |
| 20260505082033 | 2 | 295 | 4.8 | 12.9 | 0.00 | 0.00 | 0.00 | 55 | 1015.6 |
| 20260505081539 | 2 | 311 | 1.6 | 12.9 | 0.00 | 0.00 | 0.00 | 55 | 1015.6 |
| 20260505081034 | 2 | 307 | 3.2 | 12.9 | 0.00 | 0.00 | 0.00 | 55 | 1015.5 |
| 20260505080531 | 2 | 312 | 3.2 | 8.0 | 0.00 | 0.00 | 0.00 | 55 | 1015.5 |
| 20260505080031 | 2 | 293 | 3.2 | 8.0 | 0.00 | 0.00 | 0.00 | 55 | 1015.6 |
| 20260505075532 | 2 | 313 | 1.6 | 6.4 | 0.00 | 0.00 | 0.00 | 55 | 1015.5 |
| 20260505075030 | 2 | 310 | 3.2 | 6.4 | 0.00 | 0.00 | 0.00 | 54 | 1015.5 |
| 20260505074530 | 2 | 302 | 3.2 | 9.7 | 0.00 | 0.00 | 0.00 | 54 | 1015.6 |
| 20260505074029 | 2 | 299 | 1.6 | 9.7 | 0.00 | 0.00 | 0.00 | 54 | 1015.3 |
| 20260505073035 | 2 | 305 | 1.6 | 9.7 | 0.00 | 0.00 | 0.00 | 54 | 1015.4 |
| 20260505072524 | 2 | 304 | 1.6 | 9.7 | 0.00 | 0.00 | 0.00 | 54 | 1015.4 |
| 20260505072023 | 2 | 314 | 1.6 | 14.5 | 0.00 | 0.00 | 0.00 | 54 | 1015.5 |
| 20260505071524 | 2 | 329 | 4.8 | 14.5 | 0.00 | 0.00 | 0.00 | 54 | 1015.4 |
| 20260505071023 | 2 | 305 | 3.2 | 11.3 | 0.00 | 0.00 | 0.00 | 54 | 1015.5 |
| 20260505070525 | 2 | 313 | 3.2 | 9.7 | 0.00 | 0.00 | 0.00 | 54 | 1015.5 |
| 20260505070022 | 2 | 312 | 3.2 | 8.0 | 0.00 | 0.00 | 0.00 | 54 | 1015.4 |
| 20260505065520 | 2 | 303 | 1.6 | 9.7 | 0.00 | 0.00 | 0.00 | 54 | 1015.4 |
| 20260505065021 | 2 | 300 | 3.2 | 11.3 | 0.00 | 0.00 | 0.00 | 54 | 1015.6 |
| 20260505064524 | 2 | 309 | 3.2 | 9.7 | 0.00 | 0.00 | 0.00 | 54 | 1015.7 |
| 20260505064018 | 2 | 303 | 3.2 | 12.9 | 0.00 | 0.00 | 0.00 | 54 | 1015.6 |
| 20260505063620 | 2 | 298 | 3.2 | 9.7 | 0.00 | 0.00 | 0.00 | 55 | 1015.5 |
| 20260505063017 | 2 | 321 | 1.6 | 14.5 | 0.00 | 0.00 | 0.00 | 55 | 1015.5 |
| 20260505062523 | 2 | 303 | 1.6 | 14.5 | 0.00 | 0.00 | 0.00 | 55 | 1015.6 |
| 20260505062016 | 2 | 286 | 1.6 | 8.0 | 0.00 | 0.00 | 0.00 | 56 | 1015.4 |
| 20260505061515 | 2 | 319 | 0.0 | 4.8 | 0.00 | 0.00 | 0.00 | 56 | 1015.4 |
| 20260505061018 | 2 | 319 | 0.0 | 6.4 | 0.00 | 0.00 | 0.00 | 56 | 1015.4 |
| 20260505060514 | 2 | 321 | 3.2 | 6.4 | 0.00 | 0.00 | 0.00 | 56 | 1015.2 |
| 20260505060025 | 2 | 333 | 0.0 | 4.8 | 0.00 | 0.00 | 0.00 | 56 | 1015.2 |
| 20260505055513 | 2 | 342 | 0.0 | 4.8 | 0.00 | 0.00 | 0.00 | 56 | 1015.2 |
| 20260505055014 | 2 | 342 | 1.6 | 4.8 | 0.00 | 0.00 | 0.00 | 55 | 1015.2 |
| 20260505054525 | 2 | 341 | 1.6 | 4.8 | 0.00 | 0.00 | 0.00 | 55 | 1015.2 |
| 20260505054012 | 2 | 341 | 1.6 | 4.8 | 0.00 | 0.00 | 0.00 | 55 | 1015.2 |
| 20260505053012 | 2 | 341 | 1.6 | 4.8 | 0.00 | 0.00 | 0.00 | 55 | 1015.2 |
| 20260505052511 | 2 | 341 | 1.6 | 4.8 | 0.00 | 0.00 | 0.00 | 55 | 1015.1 |
| 20260505052013 | 2 | 346 | 1.6 | 6.4 | 0.00 | 0.00 | 0.00 | 54 | 1015.1 |
| 20260505051510 | 2 | 355 | 1.6 | 4.8 | 0.00 | 0.00 | 0.00 | 54 | 1015.2 |
| 20260505051010 | 2 | 355 | 0.0 | 3.2 | 0.00 | 0.00 | 0.00 | 54 | 1015.1 |
| 20260505050515 | 2 | 355 | 0.0 | 4.8 | 0.00 | 0.00 | 0.00 | 54 | 1015.0 |
| 20260505041506 | 3 | 16 | 6.4 | 14.5 | 0.00 | 0.00 | 0.00 | 51 | 1014.6 |
| 20260505041004 | 3 | 5 | 4.8 | 14.5 | 0.00 | 0.00 | 0.00 | 51 | 1014.5 |
| 20260505040503 | 3 | 11 | 6.4 | 12.9 | 0.00 | 0.00 | 0.00 | 52 | 1014.4 |
| 20260505040002 | 3 | 360 | 4.8 | 16.1 | 0.00 | 0.00 | 0.00 | 51 | 1014.4 |
| 20260505035505 | 3 | 10 | 6.4 | 14.5 | 0.00 | 0.00 | 0.00 | 51 | 1014.3 |
| 20260505035101 | 3 | 355 | 6.4 | 14.5 | 0.00 | 0.00 | 0.00 | 50 | 1014.2 |
| 20260505034559 | 3 | 17 | 4.8 | 12.9 | 0.00 | 0.00 | 0.00 | 50 | 1014.1 |
| 20260505034058 | 4 | 25 | 4.8 | 16.1 | 0.00 | 0.00 | 0.00 | 49 | 1014.1 |
| 20260505033658 | 4 | 5 | 6.4 | 16.1 | 0.00 | 0.00 | 0.00 | 49 | 1014.1 |
| 20260505033112 | 4 | 5 | 8.0 | 20.9 | 0.00 | 0.00 | 0.00 | 49 | 1014.0 |
| 20260505032554 | 4 | 5 | 6.4 | 20.9 | 0.00 | 0.00 | 0.00 | 49 | 1014.0 |
| 20260505032054 | 4 | 28 | 6.4 | 16.1 | 0.00 | 0.00 | 0.00 | 49 | 1013.9 |
| 20260505031553 | 4 | 23 | 6.4 | 16.1 | 0.00 | 0.00 | 0.00 | 49 | 1013.6 |
| 20260505031055 | 4 | 11 | 4.8 | 17.7 | 0.00 | 0.00 | 0.00 | 49 | 1013.6 |
| 20260505030553 | 5 | 28 | 4.8 | 17.7 | 0.00 | 0.00 | 0.00 | 48 | 1013.5 |
| 20260505030052 | 5 | 5 | 6.4 | 14.5 | 0.00 | 0.00 | 0.00 | 48 | 1013.5 |
| 20260505025549 | 5 | 5 | 6.4 | 14.5 | 0.00 | 0.00 | 0.00 | 48 | 1013.4 |
| 20260505025048 | 5 | 350 | 8.0 | 14.5 | 0.00 | 0.00 | 0.00 | 48 | 1013.3 |
| 20260505024547 | 5 | 355 | 6.4 | 14.5 | 0.00 | 0.00 | 0.00 | 47 | 1013.3 |
| 20260505024046 | 5 | 360 | 6.4 | 14.5 | 0.00 | 0.00 | 0.00 | 47 | 1013.1 |
| 20260505023647 | 5 | 360 | 6.4 | 12.9 | 0.00 | 0.00 | 0.00 | 47 | 1013.1 |
| 20260505023059 | 5 | 355 | 6.4 | 16.1 | 0.00 | 0.00 | 0.00 | 47 | 1013.0 |
| 20260505022551 | 6 | 25 | 8.0 | 16.1 | 0.00 | 0.00 | 0.00 | 46 | 1012.9 |
| 20260505022050 | 6 | 360 | 8.0 | 14.5 | 0.00 | 0.00 | 0.00 | 46 | 1012.9 |
| 20260505021546 | 6 | 12 | 6.4 | 12.9 | 0.00 | 0.00 | 0.00 | 46 | 1012.6 |
| 20260505021046 | 6 | 5 | 6.4 | 12.9 | 0.00 | 0.00 | 0.00 | 46 | 1012.7 |
| 20260505020545 | 6 | 5 | 4.8 | 19.3 | 0.00 | 0.00 | 0.00 | 46 | 1012.6 |
| 20260505020050 | 6 | 360 | 8.0 | 19.3 | 0.00 | 0.00 | 0.00 | 45 | 1012.6 |
| 20260505015545 | 6 | 360 | 9.7 | 16.1 | 0.00 | 0.00 | 0.00 | 45 | 1012.4 |
| 20260505015045 | 6 | 355 | 9.7 | 16.1 | 0.00 | 0.00 | 0.00 | 45 | 1012.3 |
| 20260505014545 | 6 | 5 | 6.4 | 17.7 | 0.00 | 0.00 | 0.00 | 45 | 1012.2 |
| 20260505014044 | 6 | 5 | 8.0 | 17.7 | 0.00 | 0.00 | 0.00 | 44 | 1012.2 |
| 20260505013643 | 6 | 350 | 8.0 | 17.7 | 0.00 | 0.00 | 0.00 | 44 | 1012.1 |
| 20260505013039 | 7 | 360 | 8.0 | 17.7 | 0.00 | 0.00 | 0.00 | 43 | 1012.0 |
| 20260505012539 | 7 | 355 | 6.4 | 12.9 | 0.00 | 0.00 | 0.00 | 44 | 1011.9 |
| 20260505012039 | 7 | 304 | 6.4 | 14.5 | 0.00 | 0.00 | 0.00 | 43 | 1011.8 |
| 20260505011539 | 7 | 24 | 6.4 | 22.5 | 0.00 | 0.00 | 0.00 | 43 | 1011.7 |
| 20260505011037 | 7 | 182 | 9.7 | 22.5 | 0.00 | 0.00 | 0.00 | 42 | 1011.5 |
| 20260505010536 | 7 | 5 | 8.0 | 17.7 | 0.00 | 0.00 | 0.00 | 42 | 1011.7 |
| 20260505010041 | 7 | 331 | 3.2 | 16.1 | 0.00 | 0.00 | 0.00 | 41 | 1011.6 |
| 20260505005536 | 7 | 5 | 4.8 | 16.1 | 0.00 | 0.00 | 0.00 | 41 | 1011.7 |
| 20260505005036 | 7 | 29 | 4.8 | 16.1 | 0.00 | 0.00 | 0.00 | 42 | 1011.4 |